Princeton, MN

9:47 AM CST on November 21, 2019 (GMT -0600)
Princeton Municipal

Weather History for KPNM - September, 2019

Change the Weather History Date:

Monday, September 9, 2019

  Actual Average Record
Temperature  
Mean Temperature 60 °F -  
Max Temperature 66 °F 73 °F 89 °F (2013)
Min Temperature 55 °F 50 °F 33 °F (2000)
Degree Days  
Heating Degree Days 4    
Growing Degree Days 10 (Base 50)    
Moisture  
Dew Point 58 °F    
Average Humidity 92    
Maximum Humidity 100    
Minimum Humidity 82    
Precipitation  
Precipitation 0.00 in - - ()
Sea Level Pressure  
Sea Level Pressure 29.98 in    
Wind  
Wind Speed 7 mph (ESE)    
Max Wind Speed 14 mph    
Max Gust Speed 24 mph    
Visibility 8 miles    
Events Rain , Thunderstorm    
Averages and records for this station are not official NWS values.
T = Trace of Precipitation, MM = Missing Value Source: NWS Daily Summary

Daily Weather History Graph

Daily Weather History Graph

Search for Another Location

Airport or City:

Astronomy

Sep. 09, 2019 Rise Set
Actual Time 6:45 AM CDT 7:37 PM CDT
Civil Twilight 6:15 AM CDT 8:07 PM CDT
Nautical Twilight 5:39 AM CDT 8:43 PM CDT
Astronomical Twilight 5:01 AM CDT 9:20 PM CDT
Moon 5:47 PM CDT (9/9) 2:02 AM CDT (9/9)
Length of Visible Light 13h 52m
Length of Day
12h 52m
Waxing Gibbous, 83% of the Moon is Illuminated
Sep 9
Waxing Gibbous
Sep 13
Full
Sep 21
Last Quarter
Sep 28
New
Oct 5
First Quarter

Hourly Weather History & Observations

Time (CDT) Temp. Dew Point Humidity Pressure Visibility Wind Dir Wind Speed Gust Speed Precip Events Conditions
12:15 AM 57.2 °F 53.6 °F 88% 30.15 in 10.0 mi ESE 5.8 mph - N/A   Overcast
12:40 AM 57.2 °F 53.6 °F 88% 30.15 in 10.0 mi ESE 3.5 mph - N/A   Overcast
12:58 AM 57.2 °F 53.6 °F 88% 30.15 in 10.0 mi East 4.6 mph - N/A   Overcast
1:16 AM 57.2 °F 53.6 °F 88% 30.15 in 10.0 mi East 4.6 mph - N/A   Overcast
1:35 AM 57.2 °F 53.6 °F 88% 30.15 in 10.0 mi East 3.5 mph - N/A   Overcast
1:55 AM 57.2 °F 53.6 °F 88% 30.15 in 10.0 mi East 4.6 mph - N/A   Overcast
2:19 AM 57.2 °F 53.6 °F 88% 30.14 in 10.0 mi ENE 5.8 mph - N/A   Overcast
2:37 AM 57.2 °F 53.6 °F 88% 30.13 in 10.0 mi ENE 5.8 mph - N/A   Overcast
2:55 AM 57.2 °F 53.6 °F 88% 30.12 in 10.0 mi East 5.8 mph - N/A   Overcast
2:56 AM 57.2 °F 53.6 °F 88% 30.12 in 10.0 mi ENE 5.8 mph - N/A   Overcast
3:15 AM 57.2 °F 53.6 °F 88% 30.12 in 10.0 mi East 3.5 mph - N/A   Overcast
3:35 AM 57.2 °F 53.6 °F 88% 30.13 in 10.0 mi East 3.5 mph - N/A   Overcast
3:58 AM 57.2 °F 53.6 °F 88% 30.11 in 10.0 mi East 4.6 mph - N/A   Overcast
4:16 AM 57.2 °F 53.6 °F 88% 30.12 in 10.0 mi East 4.6 mph - N/A   Overcast
4:35 AM 57.2 °F 55.4 °F 94% 30.12 in 10.0 mi East 4.6 mph - N/A Rain Light Rain
4:55 AM 57.2 °F 55.4 °F 94% 30.12 in 5.0 mi East 3.5 mph - N/A   Drizzle
5:19 AM 55.4 °F 55.4 °F 100% 30.11 in 4.0 mi ENE 8.1 mph - N/A   Drizzle
5:37 AM 55.4 °F 55.4 °F 100% 30.09 in 4.0 mi East 6.9 mph - N/A   Drizzle
5:55 AM 55.4 °F 55.4 °F 100% 30.10 in 5.0 mi ESE 5.8 mph - N/A   Drizzle
6:15 AM 55.4 °F 55.4 °F 100% 30.11 in 7.0 mi East 5.8 mph - N/A Rain Light Rain
6:35 AM 57.2 °F 55.4 °F 94% 30.10 in 10.0 mi East 4.6 mph - N/A   Overcast
6:59 AM 57.2 °F 55.4 °F 94% 30.10 in 10.0 mi East 5.8 mph - N/A   Overcast
7:17 AM 57.2 °F 55.4 °F 94% 30.10 in 10.0 mi East 6.9 mph - N/A   Overcast
7:35 AM 57.2 °F 55.4 °F 94% 30.10 in 10.0 mi East 6.9 mph - N/A   Overcast
7:36 AM 57.2 °F 55.4 °F 94% 30.10 in 10.0 mi East 6.9 mph - N/A   Overcast
7:55 AM 57.2 °F 55.4 °F 94% - 10.0 mi East 8.1 mph - N/A   Overcast
8:00 AM 57.2 °F 55.4 °F 94% 30.09 in 10.0 mi East 8.1 mph - N/A   Overcast
8:18 AM 57.2 °F 55.4 °F 94% 30.08 in 10.0 mi East 8.1 mph - N/A   Overcast
8:55 AM 57.2 °F 55.4 °F 94% 30.09 in 10.0 mi ESE 8.1 mph - N/A   Overcast
9:21 AM 57.2 °F 55.4 °F 94% 30.07 in 10.0 mi East 9.2 mph - N/A   Overcast
9:39 AM 57.2 °F 55.4 °F 94% 30.07 in 10.0 mi East 9.2 mph - N/A   Overcast
9:57 AM 57.2 °F 55.4 °F 94% 30.06 in 10.0 mi East 9.2 mph - N/A   Overcast
10:16 AM 59.0 °F 55.4 °F 88% 30.04 in 10.0 mi East 11.5 mph 20.7 mph N/A   Overcast
10:42 AM 59.0 °F 55.4 °F 88% 30.05 in 10.0 mi East 8.1 mph - N/A   Overcast
10:56 AM 59.0 °F 55.4 °F 88% 30.05 in 10.0 mi East 9.2 mph 16.1 mph N/A   Overcast
11:16 AM 60.8 °F 55.4 °F 82% 30.04 in 10.0 mi East 11.5 mph 17.3 mph N/A Thunderstorm Overcast
11:35 AM 60.8 °F 55.4 °F 82% 30.03 in 7.0 mi East 9.2 mph - N/A   Overcast
11:36 AM 60.8 °F 55.4 °F 82% 30.03 in 7.0 mi East 11.5 mph 18.4 mph N/A   Overcast
11:55 AM 60.8 °F 57.2 °F 88% 30.04 in 10.0 mi East 8.1 mph - N/A   Overcast
12:19 PM 60.8 °F 57.2 °F 88% 30.03 in 10.0 mi East 8.1 mph - N/A   Overcast
12:37 PM 60.8 °F 57.2 °F 88% 30.02 in 4.0 mi East 8.1 mph - N/A   Drizzle
12:55 PM 60.8 °F 57.2 °F 88% 30.00 in 2.5 mi East 9.2 mph - N/A Thunderstorm Unknown
1:15 PM 59.0 °F 57.2 °F 94% 30.01 in 10.0 mi ESE 5.8 mph - N/A Rain , Thunderstorm Light Thunderstorms and Rain
1:35 PM 60.8 °F 57.2 °F 88% 29.99 in 5.0 mi East 10.4 mph 18.4 mph N/A Rain , Thunderstorm Light Thunderstorms and Rain
1:39 PM 59.0 °F 57.2 °F 94% 29.99 in 7.0 mi East 11.5 mph 18.4 mph N/A Rain Light Rain
1:58 PM 59.0 °F 57.2 °F 94% 29.98 in 10.0 mi East 12.7 mph 18.4 mph N/A Rain Light Rain
2:16 PM 60.8 °F 57.2 °F 88% 29.96 in 10.0 mi East 9.2 mph 18.4 mph N/A Rain Light Rain
2:35 PM 60.8 °F 57.2 °F 88% 29.95 in 10.0 mi ESE 11.5 mph 17.3 mph N/A   Overcast
2:36 PM 60.8 °F 57.2 °F 88% 29.95 in 10.0 mi ESE 11.5 mph 17.3 mph N/A   Overcast
2:55 PM 60.8 °F 57.2 °F 88% 29.94 in 10.0 mi East 6.9 mph - N/A Rain Light Rain
2:56 PM 60.8 °F 57.2 °F 88% 29.94 in 7.0 mi East 8.1 mph - N/A Rain Rain
3:19 PM 60.8 °F 57.2 °F 88% 29.93 in 10.0 mi East 9.2 mph - N/A Rain Light Rain
3:37 PM 60.8 °F 57.2 °F 88% 29.92 in 7.0 mi ESE 11.5 mph 18.4 mph N/A Rain Light Rain
3:55 PM 60.8 °F 57.2 °F 88% 29.91 in 10.0 mi East 8.1 mph 17.3 mph N/A Rain Light Rain
3:56 PM 60.8 °F 57.2 °F 88% 29.91 in 10.0 mi ESE 10.4 mph 17.3 mph N/A Rain Light Rain
4:15 PM 60.8 °F 57.2 °F 88% 29.91 in 10.0 mi ESE 8.1 mph - N/A Rain Light Rain
4:16 PM 60.8 °F 57.2 °F 88% 29.91 in 10.0 mi ESE 9.2 mph - N/A Rain Light Rain
4:35 PM 60.8 °F 59.0 °F 94% 29.90 in 7.0 mi East 9.2 mph - N/A Rain Light Rain
4:58 PM 60.8 °F 59.0 °F 94% 29.90 in 10.0 mi SE 3.5 mph - N/A Rain Light Rain
5:16 PM 60.8 °F 59.0 °F 94% 29.88 in 10.0 mi ESE 9.2 mph - N/A Rain Light Rain
5:35 PM 60.8 °F 60.8 °F 100% 29.87 in 10.0 mi ESE 12.7 mph 16.1 mph N/A   Overcast
5:36 PM 60.8 °F 60.8 °F 100% 29.87 in 10.0 mi ESE 11.5 mph 16.1 mph N/A   Overcast
5:55 PM 60.8 °F 60.8 °F 100% 29.86 in 10.0 mi ESE 8.1 mph - N/A   Overcast
6:19 PM 62.6 °F 60.8 °F 94% 29.84 in 10.0 mi ESE 10.4 mph - N/A   Overcast
6:36 PM 62.6 °F 60.8 °F 94% 29.83 in 10.0 mi ESE 12.7 mph 18.4 mph N/A   Overcast
6:55 PM 62.6 °F 60.8 °F 94% 29.83 in 10.0 mi SE 12.7 mph 16.1 mph N/A   Overcast
6:56 PM 62.6 °F 60.8 °F 94% 29.82 in 10.0 mi ESE 12.7 mph 16.1 mph N/A   Overcast
7:15 PM 62.6 °F 60.8 °F 94% 29.82 in 10.0 mi SE 13.8 mph 19.6 mph N/A   Overcast
7:35 PM 62.6 °F 60.8 °F 94% 29.81 in 10.0 mi SE 12.7 mph 24.2 mph N/A   Overcast
7:58 PM 62.6 °F 62.6 °F 100% 29.81 in 10.0 mi SE 10.4 mph 16.1 mph N/A Rain Light Rain
8:16 PM 62.6 °F 62.6 °F 100% 29.80 in 7.0 mi SSE 12.7 mph 19.6 mph N/A   Overcast
8:35 PM 64.4 °F 62.6 °F 94% 29.81 in 5.0 mi SE 8.1 mph - N/A   Overcast
8:55 PM 64.4 °F 62.6 °F 94% 29.81 in 4.0 mi SSE 9.2 mph - N/A   Overcast
9:19 PM 64.4 °F 62.6 °F 94% 29.80 in 4.0 mi SSE 8.1 mph - N/A   Overcast
9:37 PM 64.4 °F 62.6 °F 94% 29.80 in 4.0 mi SSE 6.9 mph - N/A   Overcast
9:55 PM 64.4 °F 64.4 °F 100% 29.80 in 4.0 mi SSE 6.9 mph - N/A   Overcast
9:56 PM 64.4 °F 64.4 °F 100% 29.80 in 4.0 mi SSE 6.9 mph - N/A   Overcast
10:15 PM 64.4 °F 64.4 °F 100% 29.80 in 4.0 mi SSE 5.8 mph - N/A   Overcast
10:16 PM 64.4 °F 64.4 °F 100% 29.80 in 4.0 mi SE 5.8 mph - N/A   Overcast
10:35 PM 66.2 °F 64.4 °F 94% 29.79 in 4.0 mi SE 6.9 mph - N/A   Overcast
10:40 PM 66.2 °F 64.4 °F 94% 29.79 in 4.0 mi SE 6.9 mph - N/A   Overcast
10:58 PM 66.2 °F 64.4 °F 94% 29.79 in 4.0 mi SSE 5.8 mph - N/A   Overcast
11:16 PM 66.2 °F 64.4 °F 94% 29.79 in 3.0 mi SE 5.8 mph - N/A   Overcast
11:35 PM 66.2 °F 64.4 °F 94% 29.80 in 3.0 mi South 4.6 mph - N/A   Overcast
11:55 PM 66.2 °F 66.2 °F 100% 29.79 in 4.0 mi SE 3.5 mph - N/A   Overcast